Weather History for Reading, PA

Change the Weather History Date:

Thursday, January 23, 2014

  Actual Average Record
Temperature  
Mean Temperature 12 °F 29 °F  
Max Temperature 21 °F 38 °F 68 °F (1906)
Min Temperature 3 °F 21 °F -5 °F (1936)
Degree Days  
Heating Degree Days 53 36  
Month to date heating degree days 885 813  
Since 1 July heating degree days 2873 2844  
Cooling Degree Days 0 0  
Month to date cooling degree days 0 0  
Year to date cooling degree days 0 0  
Moisture  
Dew Point 1 °F    
Average Humidity 64    
Maximum Humidity 83    
Minimum Humidity 45    
Precipitation  
Precipitation T in 0.09 in 1.18 in (1966)
Month to date precipitation 3.38 2.36  
Year to date precipitation 3.38 2.36  
Sea Level Pressure  
Sea Level Pressure 30.22 in    
Wind  
Wind Speed 7 mph (West)    
Max Wind Speed 17 mph    
Max Gust Speed 25 mph    
Visibility 10 miles    
Events      
T = Trace of Precipitation, MM = Missing Value Source: NWS Daily Summary

Daily Weather History Graph

Daily Weather History Graph

Search for Another Location

Airport:

Trip Planner

Search our weather history database for the weather conditions in past years. The results will help you decide how hot, cold, wet, or windy it might be!

Date:

Astronomy

Jan. 23, 2014 Rise Set
Actual Time 7:20 AM EST 5:11 PM EST
Civil Twilight 6:51 AM EST 5:40 PM EST
Nautical Twilight 6:17 AM EST 6:13 PM EST
Astronomical Twilight 5:45 AM EST 6:46 PM EST
Moon No Moon Rise 10:52 AM EST (1/23)
Length of Visible Light 10h 49m
Length of Day
9h 50m
Waning Gibbous, 55% of the Moon is Illuminated
Jan 23
Waning Gibbous
Jan 24
Last Quarter
Jan 30
New
Feb 6
First Quarter
Feb 14
Full

Hourly Weather History & Observations

Time (EST) Temp. Windchill Dew Point Humidity Pressure Visibility Wind Dir Wind Speed Gust Speed Precip Events Conditions
12:54 AM 7.0 °F - -2.9 °F 64% 30.08 in 10.0 mi Calm Calm - N/A   Overcast
1:54 AM 8.1 °F - -2.9 °F 61% 30.09 in 10.0 mi Calm Calm - N/A   Mostly Cloudy
2:54 AM 9.0 °F -0.9 °F -4.0 °F 56% 30.12 in 10.0 mi WNW 5.8 mph - N/A   Overcast
3:54 AM 9.0 °F - -2.9 °F 59% 30.12 in 10.0 mi Calm Calm - N/A   Overcast
4:54 AM 9.0 °F - -2.9 °F 59% 30.13 in 10.0 mi Calm Calm - N/A   Overcast
5:54 AM 7.0 °F 0.1 °F -2.9 °F 64% 30.15 in 10.0 mi WSW 3.5 mph - N/A   Partly Cloudy
6:54 AM 5.0 °F - -2.0 °F 73% 30.17 in 10.0 mi Calm Calm - N/A   Clear
7:54 AM 5.0 °F - -0.0 °F 80% 30.18 in 10.0 mi Calm Calm - N/A   Mostly Cloudy
8:54 AM 9.0 °F - -0.9 °F 64% 30.19 in 10.0 mi Calm Calm - N/A   Clear
9:54 AM 12.9 °F 6.9 °F -0.0 °F 56% 30.21 in 10.0 mi WSW 3.5 mph - N/A   Clear
10:54 AM 16.0 °F 3.6 °F 1.9 °F 54% 30.22 in 10.0 mi WNW 10.4 mph - 0.00 in   Clear
11:54 AM 17.1 °F 4.3 °F 1.9 °F 52% 30.20 in 10.0 mi West 11.5 mph - 0.00 in   Clear
12:54 PM 19.0 °F 5.0 °F 1.9 °F 47% 30.19 in 10.0 mi West 15.0 mph - 0.00 in   Partly Cloudy
1:54 PM 19.9 °F 6.7 °F 5.0 °F 52% 30.19 in 10.0 mi West 13.8 mph 19.6 mph 0.00 in   Partly Cloudy
2:54 PM 19.9 °F 6.2 °F 3.9 °F 50% 30.20 in 10.0 mi West 15.0 mph 20.7 mph 0.00 in   Mostly Cloudy
3:54 PM 19.0 °F 5.0 °F 6.1 °F 57% 30.22 in 10.0 mi West 15.0 mph 20.7 mph N/A   Clear
4:54 PM 19.0 °F 6.1 °F 3.9 °F 52% 30.25 in 10.0 mi West 12.7 mph - 0.00 in   Mostly Cloudy
5:54 PM 17.1 °F 10.0 °F 5.0 °F 59% 30.28 in 10.0 mi WNW 4.6 mph - N/A   Clear
6:54 PM 14.0 °F 5.1 °F 3.0 °F 62% 30.30 in 10.0 mi West 5.8 mph - N/A   Clear
7:54 PM 15.1 °F 4.2 °F 3.9 °F 61% 30.32 in 10.0 mi West 8.1 mph - N/A   Mostly Cloudy
8:54 PM 14.0 °F 2.9 °F 1.9 °F 59% 30.33 in 10.0 mi WSW 8.1 mph - N/A   Clear
9:54 PM 14.0 °F 1.2 °F -0.9 °F 52% 30.35 in 10.0 mi West 10.4 mph - N/A   Clear
10:54 PM 12.9 °F -0.2 °F -0.9 °F 54% 30.36 in 10.0 mi West 10.4 mph - N/A   Clear
11:54 PM 12.0 °F -0.4 °F -0.9 °F 56% 30.38 in 10.0 mi West 9.2 mph - N/A   Clear